This is the latest recevied weather packets stored in our database for station/object K6CED. If no packets are shown the sender has not sent any weather packets the latest 10 day(s).
| Time | Temp. | Humidity | Pressure | Rain* | Wind** | Luminosity | Snow |
|---|---|---|---|---|---|---|---|
| 1787778140 | 41.11° C | 30% | 1014.2 hPa | 0 mm | - | 752 W/m² | - |
| 1787777839 | 40.56° C | 30% | 1014.1 hPa | 0 mm | - | 741 W/m² | - |
| 1787777536 | 40.56° C | 30% | 1014.3 hPa | 0 mm | - | 735 W/m² | - |
| 1787777230 | 41.11° C | 30% | 1014.1 hPa | 0 mm | - | 732 W/m² | - |
| 1787776930 | 41.11° C | 29% | 1014.4 hPa | 0 mm | - | 730 W/m² | - |
| 1787776629 | 40.56° C | 29% | 1014.5 hPa | 0 mm | - | 729 W/m² | - |
| 1787776328 | 41.11° C | 29% | 1014.5 hPa | 0 mm | - | 733 W/m² | - |
| 1787776026 | 40.56° C | 30% | 1014.6 hPa | 0 mm | - | 736 W/m² | - |
| 1787775722 | 40.56° C | 28% | 1014.6 hPa | 0 mm | - | 746 W/m² | - |
| 1787775420 | 40° C | 30% | 1014.9 hPa | 0 mm | - | 755 W/m² | - |
| 1787775114 | 38.89° C | 31% | 1014.9 hPa | 0 mm | - | 764 W/m² | - |
| 1787774814 | 40° C | 30% | 1014.8 hPa | 0 mm | - | 774 W/m² | - |
| 1787774513 | 38.89° C | 31% | 1015.1 hPa | 0 mm | - | 784 W/m² | - |
| 1787774213 | 39.44° C | 30% | 1015 hPa | 0 mm | - | 792 W/m² | - |
| 1787773911 | 39.44° C | 31% | 1015.3 hPa | 0 mm | - | 804 W/m² | - |
| 1787773610 | 39.44° C | 31% | 1015.1 hPa | 0 mm | - | 811 W/m² | - |
| 1787773307 | 39.44° C | 31% | 1015.1 hPa | 0 mm | - | 817 W/m² | - |
| 1787773002 | 37.78° C | 32% | 1015.3 hPa | 0 mm | - | 822 W/m² | - |
| 1787772697 | 38.33° C | 32% | 1015.4 hPa | 0 mm | - | 827 W/m² | - |
| 1787772396 | 37.78° C | 33% | 1015.4 hPa | 0 mm | - | 831 W/m² | - |
| 1787772089 | 38.33° C | 32% | 1015.6 hPa | 0 mm | - | 832 W/m² | - |
| 1787771784 | 37.78° C | 33% | 1015.7 hPa | 0 mm | - | 832 W/m² | - |
| 1787771483 | 37.78° C | 32% | 1015.6 hPa | 0 mm | - | 832 W/m² | - |
| 1787771182 | 37.78° C | 33% | 1015.7 hPa | 0 mm | - | 832 W/m² | - |
| 1787770877 | 37.22° C | 34% | 1015.8 hPa | 0 mm | - | 830 W/m² | - |
* Rain latest hour (hover to see other rain measurements)
** Current wind speed in m/s (hover to see current wind gust speed)